HAWK-12C

Last updated on Sat Jul 19 2025 00:02:07 GMT+0000 (Coordinated Universal Time)

1 64621U 25138A 25199.09635371 .00002848 00000+0 15667-3 0 9997 2 64621 97.4307 203.2211 0013860 219.2706 140.7522 15.14789880 3237
UTC large
Height (km)
Speed (km/s)
/
Latitude / Longitude
Inclination (degrees)
Orbital Period (minutes)
Azimuth
Elevation
Range (km)
Doppler Factor

Next 0 passes for location: London (51.5072 / 0.1276)

Sorry there are no passes over London.